Location: Roanoke
(37.2710°N, 79.9420°W)
Time: 13:20:29
(UTC-04:00)

Cosmos 1441 Rocket - Visible Passes

Search period start: 23 August 2014 00:00
Search period end: 02 September 2014 00:00
Orbit: 508 x 558 km, 81.1° (Epoch: 23 August)

Date Brightness Start Highest point End Pass type
(mag) Time Alt. Az. Time Alt. Az. Time Alt. Az.
23 Aug 4.7 21:19:21 21° ENE 21:19:21 21° ENE 21:21:50 10° NE visible
23 Aug 5.5 22:54:40 22° WNW 22:54:51 22° WNW 22:58:01 10° NNW visible
24 Aug 4.6 21:09:07 21° E 21:09:13 21° E 21:12:14 10° NE visible
24 Aug 5.5 22:44:26 21° W 22:45:18 23° WNW 22:48:30 10° NNW visible
25 Aug 4.6 20:58:42 19° ESE 20:59:41 20° E 21:02:39 10° NE visible
25 Aug 5.5 22:33:59 18° WSW 22:35:45 23° WNW 22:38:58 10° NNW visible
26 Aug 4.7 20:47:59 13° SE 20:50:08 20° E 20:53:03 10° NE visible
26 Aug 5.5 22:23:15 12° SW 22:26:12 24° WNW 22:29:27 10° NNW visible
27 Aug 4.7 20:37:44 10° SE 20:40:36 19° E 20:43:26 10° NE visible
27 Aug 5.5 22:13:21 10° SW 22:16:38 24° WNW 22:19:55 10° NNW visible
28 Aug 4.7 20:28:15 10° SE 20:31:03 19° E 20:33:50 10° NE visible
28 Aug 5.5 22:03:46 10° SW 22:07:05 25° WNW 22:10:23 10° NNW visible
29 Aug 4.7 20:18:46 10° SE 20:21:30 18° E 20:24:13 10° NE visible
29 Aug 5.5 21:54:10 10° SW 21:57:31 26° WNW 22:00:50 10° NNW visible
30 Aug 5.5 21:44:35 10° SW 21:47:57 26° WNW 21:51:18 10° NNW visible
31 Aug 5.4 21:34:59 10° SW 21:38:23 27° WNW 21:41:45 10° NNW visible
01 Sep 5.4 21:25:24 10° SW 21:28:49 28° WNW 21:32:12 10° NNW visible
